Regional Weather Roundup
Issued by NWS Upton, NY

Current Version | Previous Version | Text Only | Print | Product List | Glossary On
Versions: 1 2 3 4 5 6 7 8 9 10 11 12 13 14 15 16 17 18 19 20 21 22 23 24 25 26 27 28 29 30 31 32 33 34 35 36 37 38 39 40 41 42 43 44 45 46 47 48 49 50
000
ASUS41 KOKX 300105
RWROKX

REGIONAL WEATHER ROUNDUP
NATIONAL WEATHER SERVICE NEW YORK NY
900 PM EDT FRI AUG 29 2014

NOTE: "FAIR" INDICATES FEW OR NO CLOUDS BELOW 12,000 FEET WITH NO
SIGNIFICANT WEATHER AND/OR OBSTRUCTIONS TO VISIBILITY.

NYZ071-072-176-178-NJZ106-104-300200-
NEW YORK CITY METRO AREA


CITY           SKY/WX    TMP DP  RH WIND       PRES   REMARKS
CENTRAL PARK   PTCLDY    70  53  54 S8        30.26R
LAGUARDIA APRT MOCLDY    70  54  56 SE12      30.22R
KENNEDY INTL   MOCLDY    68  54  60 SE3       30.24R
NEWARK/LIBERTY MOCLDY    71  54  54 SE7       30.23R
BRNX BOT. GARD   N/A     68  54  60 SE3       30.25R
TETERBORO      PTCLDY    70  53  54 S6        30.21R
$$

NYZ177-179-078>081-300200-
LONG ISLAND NEW YORK

CITY           SKY/WX    TMP DP  RH WIND       PRES   REMARKS
FARMINGDALE    CLEAR     66  55  67 SE3       30.24R
ISLIP          MOCLDY    67  54  63 SE5       30.23R
SHIRLEY        PTCLDY    65  55  70 SE6       30.25R
WESTHAMPTON    PTCLDY    58  50  75 CALM      30.26R
MONTAUK POINT    N/A     64  57  78 CALM      30.27R
$$

NYZ052-065-067-300200-
HUDSON VALLEY

CITY           SKY/WX    TMP DP  RH WIND       PRES   REMARKS
WHITE PLAINS   CLEAR     63  54  72 SE6       30.23R
NEWBURGH       PTCLDY    68  57  68 VRB6        N/A
MONTGOMERY     PTCLDY    61  53  75 CALM      30.21R
POUGHKEEPSIE   PTCLDY    67  56  67 SE3       30.20R
ALBANY         PTCLDY    64  55  72 CALM      30.20R
$$

NJZ001-105-106-008-010-013-015-019>022-104-300200-
NEW JERSEY

CITY           SKY/WX    TMP DP  RH WIND       PRES   REMARKS
NEWARK/LIBERTY MOCLDY    71  54  54 SE7       30.23R
TETERBORO      PTCLDY    70  53  54 S6        30.21R
CALDWELL       PTCLDY    69  52  54 CALM      30.23R
MORRISTOWN     CLEAR     68  52  56 S3        30.22R
SOMERVILLE     PTCLDY    67  54  63 S5        30.20R
LINDEN         FAIR      74  55  52 S7        30.25R
SUSSEX         MOCLDY    64  58  80 CALM      30.22R
ANDOVER          N/A     66  55  67 VRB3      30.23R
TRENTON        CLEAR     67  55  65 SE6       30.22R
MILLVILLE      PTCLDY    62  58  86 CALM      30.22R
ATLANTIC CITY  CLEAR     62  58  86 CALM      30.22R
WRIGHTSTOWN    PTCLDY    64  58  80 SE3       30.21R
TOMS RIVER     PTCLDY    61  55  82 CALM      30.23R
BELMAR         MOCLDY    64  54  68 E3        30.23R
$$

PAZ047>061-062-071-300200-
EASTERN PENNSYLVANIA

CITY           SKY/WX    TMP DP  RH WIND       PRES   REMARKS
PHILADELPHIA   PTCLDY    70  59  68 SE9       30.22R
ALLENTOWN      CLEAR     72  51  47 SE5       30.20R
SCRANTON       CLEAR     66  55  67 CALM      30.20R
$$

CTZ002-004>006-009-010-012-RIZ004-006-007-MAZ004-011-015-300200-
SOUTHERN NEW ENGLAND
 IN CT

CITY           SKY/WX    TMP DP  RH WIND       PRES   REMARKS
BRADLEY INTL   PTCLDY    67  54  63 S10       30.22R
HARTFORD       CLEAR     66  54  65 S7        30.23R
DANBURY        PTCLDY    65  55  70 S9        30.24R
WTRBRY/OXFORD  NOT AVBL
BRIDGEPORT     PTCLDY    69  56  62 S9        30.24R
MERIDEN        PTCLDY    61  52  72 CALM      30.24R
NEW HAVEN      PTCLDY    69  56  62 S8        30.24R
CHESTER        FAIR      63  55  77 CALM      30.26R
GROTON         CLEAR     65  58  78 SE10      30.25R
WILLIMANTIC    CLEAR     64  54  69 CALM      30.25R

 IN RI

CITY           SKY/WX    TMP DP  RH WIND       PRES   REMARKS
PROVIDENCE     PTCLDY    64  54  69 SE3       30.26R
BLOCK ISLAND   CLEAR     63  54  72 SE5       30.26R
WESTERLY       CLEAR     66  57  72 S5        30.26R

 IN MA

CITY           SKY/WX    TMP DP  RH WIND       PRES   REMARKS
BOSTON         PTCLDY    63  54  72 SE10      30.25R
WORCESTER      CLEAR     63  55  75 S6        30.26R
WESTFIELD      CLEAR     60  57  89 S3        30.22R
PROVINCETOWN   CLEAR     57  52  82 E5        30.27R
NANTUCKET      CLEAR     58  52  80 E6        30.26R
$$

ANZ330-335-338-340-345-350-353-355-300200-
COASTAL MARINE OBSERVATIONS


STATION/POSITION TIME  SKY/WX   TEMP    WIND        PRES    VSBY  WAVE
                                AIR SEA DIR/SP/G                  HT/PER
                 (UTC)          (F)     (DEG/KT/KT) (MB)    (MI)  (FT/S)
NY HARB ENTRANCE NOT AVBL
4S FIRE IS       NOT AVBL
23SW MTP         0100                                 N/A           3/10
HUDSON CANYON    0100            70 73   90/  8/ 12 1023.5          4/ 9
EXECUTION ROCKS  0100            69 74  170/ 10/ 16   N/A
WESTERN LI SOUND 0100            70     190/  8/ 10   N/A           1
CENTRAL LI SOUND 0100            69 73  170/ 10/ 12   N/A           1/ 2
EASTERN LI SOUND 0000            68 69  150/ 10/ 14   N/A
ROBBINS REEF     0100            70     150/ 14/ 16   N/A
$$


>>>>>>>>>>>>>>>>>>>>>>>>>>>> KEY <<<<<<<<<<<<<<<<<<<<<<<<<<<
>                                                          <
>     SKY/WX - SKY CONDITION/PRESENT WEATHER               <
>     TMP    - TEMPERATURE IN FAHRENHEIT                   <
>     DP     - DEWPOINT IN FAHRENHEIT                      <
>     RH     - RELATIVE HUMIDITY IN PERCENT                <
>     WIND   - DIRECTION AND SPEED IN MPH                  <
>     PRES   - MEAN SEA LEVEL PRESSURE IN INCHES OF HG     <
>     WCI    - WIND CHILL INDEX                            <
>     VSB    - VISIBILITY IN MILES                         <
>     HX     - HEAT INDEX                                  <
>     TC     - TEMPERATURE IN CELSIUS                      <
>     VRB    - VARIABLE WIND DIRECTION                     <
>                                                          <
>>>>>>>>>>>>>>>>>>>>>>>>>>>> KEY <<<<<<<<<<<<<<<<<<<<<<<<<<<





USA.gov is the U.S. government's official web portal to all federal, state and local government web resources and services.